Time,TemperatureF,DewpointF,PressureIn,WindDirection,WindDirectionDegrees,WindSpeedMPH,WindSpeedGustMPH,Humidity,HourlyPrecipIn,Conditions,Clouds,dailyrainin,SoftwareType,DateUTC
2013-05-25 00:00:00,36.7,14.6,33.00,WNW,291,0.0,0.0,40,0.00,,---,0.00,VWS V14.01,2013-05-25 04:00:00,
2013-05-25 00:01:00,36.7,14.6,33.00,WNW,291,0.0,0.0,40,0.00,,---,0.00,VWS V14.01,2013-05-25 04:01:00,
2013-05-25 00:06:00,36.7,14.6,33.00,West,260,0.0,0.0,40,0.00,,---,0.00,VWS V14.01,2013-05-25 04:06:00,
2013-05-25 00:11:00,36.7,14.6,33.00,West,260,0.0,0.0,40,0.00,,---,0.00,VWS V14.01,2013-05-25 04:11:00,
2013-05-25 00:16:00,36.5,14.5,33.00,West,260,0.0,0.0,40,0.00,,---,0.00,VWS V14.01,2013-05-25 04:16:00,
2013-05-25 00:21:00,36.5,14.5,33.00,West,260,0.0,0.0,40,0.00,,---,0.00,VWS V14.01,2013-05-25 04:21:00,
2013-05-25 00:26:00,36.1,14.2,33.00,WSW,256,0.0,0.0,40,0.00,,---,0.00,VWS V14.01,2013-05-25 04:26:00,
2013-05-25 00:31:00,36.1,14.2,33.00,WSW,242,0.0,0.0,40,0.00,,---,0.00,VWS V14.01,2013-05-25 04:31:00,
2013-05-25 00:36:00,36.0,14.0,33.00,WNW,300,0.0,0.0,40,0.00,,---,0.00,VWS V14.01,2013-05-25 04:36:00,
2013-05-25 00:41:00,36.0,14.0,33.00,North,8,0.0,0.0,40,0.00,,---,0.00,VWS V14.01,2013-05-25 04:41:00,
2013-05-25 00:46:00,35.8,13.8,33.00,NNW,335,0.0,0.0,40,0.00,,---,0.00,VWS V14.01,2013-05-25 04:46:00,
2013-05-25 00:51:00,35.8,13.8,33.00,NW,325,0.0,0.0,40,0.00,,---,0.00,VWS V14.01,2013-05-25 04:51:00,
2013-05-25 00:56:00,35.8,13.8,33.00,NW,325,0.0,0.0,40,0.00,,---,0.00,VWS V14.01,2013-05-25 04:56:00,
2013-05-25 01:01:00,35.6,13.7,33.00,WNW,288,0.0,0.0,40,0.00,,---,0.00,VWS V14.01,2013-05-25 05:01:00,
2013-05-25 01:06:00,35.4,13.5,33.00,WNW,288,0.0,0.0,40,0.00,,---,0.00,VWS V14.01,2013-05-25 05:06:00,
2013-05-25 01:11:00,35.4,13.5,33.00,WSW,247,0.0,0.0,40,0.00,,---,0.00,VWS V14.01,2013-05-25 05:11:00,
2013-05-25 01:16:00,35.2,13.4,33.00,WSW,247,0.0,0.0,40,0.00,,---,0.00,VWS V14.01,2013-05-25 05:16:00,
2013-05-25 01:21:00,35.1,13.2,33.00,West,270,0.0,0.0,40,0.00,,---,0.00,VWS V14.01,2013-05-25 05:21:00,
2013-05-25 01:26:00,34.7,12.9,33.00,West,270,0.0,0.0,40,0.00,,---,0.00,VWS V14.01,2013-05-25 05:26:00,
2013-05-25 01:31:00,34.5,12.7,33.00,West,270,0.0,0.0,40,0.00,,---,0.00,VWS V14.01,2013-05-25 05:31:00,
2013-05-25 01:36:00,34.5,12.7,33.00,West,270,0.0,0.0,40,0.00,,---,0.00,VWS V14.01,2013-05-25 05:36:00,
2013-05-25 01:41:00,34.3,12.5,33.00,West,270,0.0,0.0,40,0.00,,---,0.00,VWS V14.01,2013-05-25 05:41:00,
2013-05-25 01:46:00,34.2,12.4,33.00,West,270,0.0,0.0,40,0.00,,---,0.00,VWS V14.01,2013-05-25 05:46:00,
2013-05-25 01:51:00,34.0,12.2,33.00,West,271,0.0,0.0,40,0.00,,---,0.00,VWS V14.01,2013-05-25 05:51:00,
2013-05-25 01:56:00,33.8,12.1,33.00,West,271,0.0,0.0,40,0.00,,---,0.00,VWS V14.01,2013-05-25 05:56:00,
2013-05-25 02:01:00,33.6,11.9,33.00,NW,304,0.0,0.0,40,0.00,,---,0.00,VWS V14.01,2013-05-25 06:01:00,
2013-05-25 02:06:00,33.3,12.1,33.00,NW,304,0.0,0.0,41,0.00,,---,0.00,VWS V14.01,2013-05-25 06:06:00,
2013-05-25 02:11:00,33.1,12.0,33.00,NW,304,0.0,0.0,41,0.00,,---,0.00,VWS V14.01,2013-05-25 06:11:00,
2013-05-25 02:16:00,32.9,11.8,33.00,NW,304,0.0,0.0,41,0.00,,---,0.00,VWS V14.01,2013-05-25 06:16:00,
2013-05-25 02:21:00,32.7,11.6,33.00,NW,306,0.0,0.0,41,0.00,,---,0.00,VWS V14.01,2013-05-25 06:21:00,
2013-05-25 02:26:00,32.5,11.5,32.97,NW,306,0.0,0.0,41,0.00,,---,0.00,VWS V14.01,2013-05-25 06:26:00,
2013-05-25 02:31:00,32.4,11.3,32.97,NW,306,0.0,0.0,41,0.00,,---,0.00,VWS V14.01,2013-05-25 06:31:00,
2013-05-25 02:36:00,32.2,11.1,32.97,NW,306,0.0,0.0,41,0.00,,---,0.00,VWS V14.01,2013-05-25 06:36:00,
2013-05-25 02:41:00,32.0,11.0,33.00,NW,306,0.0,0.0,41,0.00,,---,0.00,VWS V14.01,2013-05-25 06:41:00,
2013-05-25 02:46:00,31.8,10.8,33.00,NW,306,0.0,0.0,41,0.00,,---,0.00,VWS V14.01,2013-05-25 06:46:00,
2013-05-25 02:51:00,31.8,10.8,33.00,NW,306,0.0,0.0,41,0.00,,---,0.00,VWS V14.01,2013-05-25 06:51:00,
2013-05-25 02:56:00,31.6,10.6,33.00,NW,307,0.0,0.0,41,0.00,,---,0.00,VWS V14.01,2013-05-25 06:56:00,
2013-05-25 03:01:00,31.6,10.6,33.00,NW,307,0.0,0.0,41,0.00,,---,0.00,VWS V14.01,2013-05-25 07:01:00,
2013-05-25 03:06:00,31.8,10.8,33.00,NW,307,0.0,0.0,41,0.00,,---,0.00,VWS V14.01,2013-05-25 07:06:00,
2013-05-25 03:11:00,32.0,11.0,33.00,NNW,330,0.0,0.0,41,0.00,,---,0.00,VWS V14.01,2013-05-25 07:11:00,
2013-05-25 03:16:00,32.2,11.1,33.00,North,357,0.0,0.0,41,0.00,,---,0.00,VWS V14.01,2013-05-25 07:16:00,
2013-05-25 03:21:00,32.4,11.3,33.00,North,350,0.0,0.0,41,0.00,,---,0.00,VWS V14.01,2013-05-25 07:21:00,
2013-05-25 03:26:00,32.5,11.5,33.00,SSE,162,0.0,0.0,41,0.00,,---,0.00,VWS V14.01,2013-05-25 07:26:00,
2013-05-25 03:31:00,32.5,11.5,33.00,SSE,162,0.0,0.0,41,0.00,,---,0.00,VWS V14.01,2013-05-25 07:31:00,
2013-05-25 03:36:00,32.5,11.5,33.00,North,8,0.0,0.0,41,0.00,,---,0.00,VWS V14.01,2013-05-25 07:36:00,
2013-05-25 03:41:00,32.5,11.5,33.00,North,8,0.0,0.0,41,0.00,,---,0.00,VWS V14.01,2013-05-25 07:41:00,
2013-05-25 03:46:00,32.5,11.5,33.00,North,8,0.0,0.0,41,0.00,,---,0.00,VWS V14.01,2013-05-25 07:46:00,
2013-05-25 03:51:00,32.7,11.6,33.00,SW,224,0.0,0.0,41,0.00,,---,0.00,VWS V14.01,2013-05-25 07:51:00,
2013-05-25 03:56:00,32.7,11.6,33.00,SW,225,0.0,0.0,41,0.00,,---,0.00,VWS V14.01,2013-05-25 07:56:00,
2013-05-25 04:01:00,32.7,11.6,33.00,SW,225,0.0,0.0,41,0.00,,---,0.00,VWS V14.01,2013-05-25 08:01:00,
2013-05-25 04:06:00,32.5,11.5,33.00,SW,225,0.0,0.0,41,0.00,,---,0.00,VWS V14.01,2013-05-25 08:06:00,
2013-05-25 04:11:00,32.4,11.3,33.00,SW,225,0.0,0.0,41,0.00,,---,0.00,VWS V14.01,2013-05-25 08:11:00,
2013-05-25 04:16:00,32.2,11.1,33.00,SW,225,0.0,0.0,41,0.00,,---,0.00,VWS V14.01,2013-05-25 08:16:00,
2013-05-25 04:21:00,32.2,11.1,33.00,SW,225,0.0,0.0,41,0.00,,---,0.00,VWS V14.01,2013-05-25 08:21:00,
2013-05-25 04:26:00,32.0,11.0,33.00,SW,225,0.0,0.0,41,0.00,,---,0.00,VWS V14.01,2013-05-25 08:26:00,
2013-05-25 04:31:00,31.6,10.6,33.00,SW,225,0.0,0.0,41,0.00,,---,0.00,VWS V14.01,2013-05-25 08:31:00,
2013-05-25 04:36:00,31.3,10.3,33.00,SW,225,0.0,0.0,41,0.00,,---,0.00,VWS V14.01,2013-05-25 08:36:00,
2013-05-25 04:41:00,31.1,10.2,32.97,SW,225,0.0,0.0,41,0.00,,---,0.00,VWS V14.01,2013-05-25 08:41:00,
2013-05-25 04:46:00,30.9,10.0,32.97,SW,225,0.0,0.0,41,0.00,,---,0.00,VWS V14.01,2013-05-25 08:46:00,
2013-05-25 04:51:00,30.7,9.8,32.97,SW,226,0.0,0.0,41,0.00,,---,0.00,VWS V14.01,2013-05-25 08:51:00,
2013-05-25 04:56:00,30.7,9.8,32.97,SW,225,0.0,0.0,41,0.00,,---,0.00,VWS V14.01,2013-05-25 08:56:00,
2013-05-25 05:01:00,30.7,9.8,32.97,SW,225,0.0,0.0,41,0.00,,---,0.00,VWS V14.01,2013-05-25 09:01:00,
2013-05-25 05:06:00,30.6,9.7,32.97,SW,225,0.0,0.0,41,0.00,,---,0.00,VWS V14.01,2013-05-25 09:06:00,
2013-05-25 05:11:00,30.4,9.5,32.97,SW,225,0.0,0.0,41,0.00,,---,0.00,VWS V14.01,2013-05-25 09:11:00,
2013-05-25 05:16:00,30.2,9.4,32.97,SW,225,0.0,0.0,41,0.00,,---,0.00,VWS V14.01,2013-05-25 09:16:00,
2013-05-25 05:21:00,29.8,9.0,32.97,SW,225,0.0,0.0,41,0.00,,---,0.00,VWS V14.01,2013-05-25 09:21:00,
2013-05-25 05:26:00,30.0,9.2,32.97,SW,225,0.0,0.0,41,0.00,,---,0.00,VWS V14.01,2013-05-25 09:26:00,
2013-05-25 05:31:00,29.8,9.0,32.97,SW,225,0.0,0.0,41,0.00,,---,0.00,VWS V14.01,2013-05-25 09:31:00,
2013-05-25 05:36:00,29.7,8.9,32.97,SW,225,0.0,0.0,41,0.00,,---,0.00,VWS V14.01,2013-05-25 09:36:00,
2013-05-25 05:41:00,29.7,8.9,33.00,SW,225,0.0,0.0,41,0.00,,---,0.00,VWS V14.01,2013-05-25 09:41:00,
2013-05-25 05:46:00,29.5,8.7,33.00,SW,225,0.0,0.0,41,0.00,,---,0.00,VWS V14.01,2013-05-25 09:46:00,
2013-05-25 05:51:00,29.7,8.9,33.00,SW,225,0.0,0.0,41,0.00,,---,0.00,VWS V14.01,2013-05-25 09:51:00,
2013-05-25 05:56:00,29.7,8.9,33.00,North,0,0.0,0.0,41,0.00,,---,0.00,VWS V14.01,2013-05-25 09:56:00,
2013-05-25 06:01:00,29.8,9.0,33.00,West,277,0.0,0.0,41,0.00,,---,0.00,VWS V14.01,2013-05-25 10:01:00,
2013-05-25 06:06:00,30.0,9.2,33.00,West,263,0.0,0.0,41,0.00,,---,0.00,VWS V14.01,2013-05-25 10:06:00,
2013-05-25 06:11:00,30.0,9.2,33.00,NNW,339,0.0,0.0,41,0.00,,---,0.00,VWS V14.01,2013-05-25 10:11:00,
2013-05-25 06:16:00,30.2,9.4,33.00,NNW,339,0.0,0.0,41,0.00,,---,0.00,VWS V14.01,2013-05-25 10:16:00,
2013-05-25 06:21:00,30.2,9.4,33.00,NNW,339,0.0,0.0,41,0.00,,---,0.00,VWS V14.01,2013-05-25 10:21:00,
2013-05-25 06:26:00,30.7,9.8,32.97,NNW,339,0.0,0.0,41,0.00,,---,0.00,VWS V14.01,2013-05-25 10:26:00,
2013-05-25 06:31:00,30.9,10.0,32.97,NNW,346,0.0,0.0,41,0.00,,---,0.00,VWS V14.01,2013-05-25 10:31:00,
2013-05-25 06:36:00,30.9,10.0,32.97,WNW,302,3.1,3.1,41,0.00,,---,0.00,VWS V14.01,2013-05-25 10:36:00,
2013-05-25 06:41:00,31.1,10.2,32.97,North,353,0.0,0.0,41,0.00,,---,0.00,VWS V14.01,2013-05-25 10:41:00,
2013-05-25 06:46:00,31.5,10.5,32.97,WNW,303,0.0,0.0,41,0.00,,---,0.00,VWS V14.01,2013-05-25 10:46:00,
2013-05-25 06:51:00,32.2,11.1,32.97,West,273,0.0,0.0,41,0.00,,---,0.00,VWS V14.01,2013-05-25 10:51:00,
2013-05-25 06:56:00,32.4,11.3,32.97,West,280,0.0,0.0,41,0.00,,---,0.00,VWS V14.01,2013-05-25 10:56:00,
2013-05-25 07:01:00,32.5,11.5,32.97,NNW,331,0.0,0.0,41,0.00,,---,0.00,VWS V14.01,2013-05-25 11:01:00,
2013-05-25 07:06:00,32.9,11.8,32.97,West,277,0.0,0.0,41,0.00,,---,0.00,VWS V14.01,2013-05-25 11:06:00,
2013-05-25 07:11:00,33.3,12.1,32.97,West,277,0.0,0.0,41,0.00,,---,0.00,VWS V14.01,2013-05-25 11:11:00,
2013-05-25 07:16:00,33.3,12.1,32.97,NW,322,0.0,0.0,41,0.00,,---,0.00,VWS V14.01,2013-05-25 11:16:00,
2013-05-25 07:21:00,33.6,12.4,32.97,NW,320,0.0,0.0,41,0.00,,---,0.00,VWS V14.01,2013-05-25 11:21:00,
2013-05-25 07:26:00,33.4,12.3,33.00,NE,48,0.0,0.0,41,0.00,,---,0.00,VWS V14.01,2013-05-25 11:26:00,
2013-05-25 07:31:00,33.6,12.4,33.00,WNW,282,0.0,3.6,41,0.00,,---,0.00,VWS V14.01,2013-05-25 11:31:00,
2013-05-25 07:36:00,34.0,12.8,33.00,North,353,0.0,0.0,41,0.00,,---,0.00,VWS V14.01,2013-05-25 11:36:00,
2013-05-25 07:41:00,34.0,12.8,33.00,SW,235,0.0,0.0,41,0.00,,---,0.00,VWS V14.01,2013-05-25 11:41:00,
2013-05-25 07:46:00,34.3,13.1,33.00,West,267,0.0,0.0,41,0.00,,---,0.00,VWS V14.01,2013-05-25 11:46:00,
2013-05-25 07:51:00,34.7,13.4,33.00,WNW,289,0.0,0.0,41,0.00,,---,0.00,VWS V14.01,2013-05-25 11:51:00,
2013-05-25 07:56:00,34.9,13.6,33.00,West,276,0.0,2.2,41,0.00,,---,0.00,VWS V14.01,2013-05-25 11:56:00,
2013-05-25 08:01:00,35.4,14.1,33.00,SW,228,0.0,0.0,41,0.00,,---,0.00,VWS V14.01,2013-05-25 12:01:00,
2013-05-25 08:06:00,35.2,13.9,33.00,NE,43,0.0,0.0,41,0.00,,---,0.00,VWS V14.01,2013-05-25 12:06:00,
2013-05-25 08:11:00,35.2,13.4,33.00,NW,326,3.6,5.4,40,0.00,,---,0.00,VWS V14.01,2013-05-25 12:11:00,
2013-05-25 08:16:00,35.8,13.8,33.00,West,259,0.0,0.0,40,0.00,,---,0.00,VWS V14.01,2013-05-25 12:16:00,
2013-05-25 08:21:00,36.1,14.2,33.00,West,272,2.7,4.0,40,0.00,,---,0.00,VWS V14.01,2013-05-25 12:21:00,
2013-05-25 08:26:00,36.3,14.3,33.00,NNE,22,3.6,3.6,40,0.00,,---,0.00,VWS V14.01,2013-05-25 12:26:00,
2013-05-25 08:31:00,36.1,14.2,33.00,SW,218,0.0,0.0,40,0.00,,---,0.00,VWS V14.01,2013-05-25 12:31:00,
2013-05-25 08:36:00,36.3,14.3,33.00,NE,35,0.0,0.0,40,0.00,,---,0.00,VWS V14.01,2013-05-25 12:36:00,
2013-05-25 08:41:00,36.3,14.3,33.00,North,0,0.0,0.0,40,0.00,,---,0.00,VWS V14.01,2013-05-25 12:41:00,
2013-05-25 08:46:00,37.0,15.0,33.00,WSW,258,0.0,0.0,40,0.00,,---,0.00,VWS V14.01,2013-05-25 12:46:00,
2013-05-25 08:51:00,37.8,15.6,33.00,North,2,3.1,4.0,40,0.00,,---,0.00,VWS V14.01,2013-05-25 12:51:00,
2013-05-25 08:56:00,38.3,16.1,33.00,WSW,251,0.0,0.0,40,0.00,,---,0.00,VWS V14.01,2013-05-25 12:56:00,
2013-05-25 09:01:00,38.8,16.6,33.00,West,271,3.1,3.1,40,0.00,,---,0.00,VWS V14.01,2013-05-25 13:01:00,
2013-05-25 09:06:00,38.8,16.0,33.00,West,272,2.2,3.6,39,0.00,,---,0.00,VWS V14.01,2013-05-25 13:06:00,
2013-05-25 09:11:00,38.3,15.5,32.97,NNE,33,0.0,2.2,39,0.00,,---,0.00,VWS V14.01,2013-05-25 13:11:00,
2013-05-25 09:16:00,38.1,15.4,32.97,NNE,23,4.9,4.9,39,0.00,,---,0.00,VWS V14.01,2013-05-25 13:16:00,
2013-05-25 09:21:00,37.9,15.2,32.97,NW,319,0.0,5.4,39,0.00,,---,0.00,VWS V14.01,2013-05-25 13:21:00,
2013-05-25 09:25:00,37.9,15.2,33.00,NW,314,3.1,3.1,39,0.00,,---,0.00,VWS V14.01,2013-05-25 13:25:00,
2013-05-25 09:31:00,38.1,15.9,33.00,NE,40,0.0,2.2,40,0.00,,---,0.00,VWS V14.01,2013-05-25 13:31:00,
2013-05-25 09:35:00,38.8,16.6,33.00,NNW,348,0.0,2.2,40,0.00,,---,0.00,VWS V14.01,2013-05-25 13:35:00,
2013-05-25 09:40:00,39.7,16.8,33.00,East,85,0.0,0.0,39,0.00,,---,0.00,VWS V14.01,2013-05-25 13:40:00,
2013-05-25 09:45:00,40.1,17.1,33.00,NW,311,2.2,2.2,39,0.00,,---,0.00,VWS V14.01,2013-05-25 13:45:00,
2013-05-25 09:50:00,40.6,17.6,33.00,WSW,252,3.1,3.1,39,0.00,,---,0.00,VWS V14.01,2013-05-25 13:50:00,
2013-05-25 09:55:00,41.0,18.0,33.00,NE,56,0.0,0.0,39,0.00,,---,0.00,VWS V14.01,2013-05-25 13:55:00,
2013-05-25 10:00:00,41.2,18.1,33.00,NNE,32,0.0,0.0,39,0.00,,---,0.00,VWS V14.01,2013-05-25 14:00:00,
2013-05-25 10:05:00,42.1,18.3,33.00,West,279,2.2,4.0,38,0.00,,---,0.00,VWS V14.01,2013-05-25 14:05:00,
2013-05-25 10:10:00,43.3,19.5,32.97,North,7,2.7,4.0,38,0.00,,---,0.00,VWS V14.01,2013-05-25 14:10:00,
2013-05-25 10:15:00,43.7,19.8,32.97,WNW,287,4.0,5.8,38,0.00,,---,0.00,VWS V14.01,2013-05-25 14:15:00,
2013-05-25 10:20:00,43.3,19.5,32.97,WSW,242,3.1,3.6,38,0.00,,---,0.00,VWS V14.01,2013-05-25 14:20:00,
2013-05-25 10:25:00,42.4,18.6,32.97,WNW,300,6.3,6.3,38,0.00,,---,0.00,VWS V14.01,2013-05-25 14:25:00,
2013-05-25 10:30:00,42.3,18.5,32.97,North,353,0.0,0.0,38,0.00,,---,0.00,VWS V14.01,2013-05-25 14:30:00,
2013-05-25 10:35:00,43.3,19.5,32.97,WNW,291,2.2,4.9,38,0.00,,---,0.00,VWS V14.01,2013-05-25 14:35:00,
2013-05-25 10:40:00,43.3,19.5,33.00,NNW,344,2.7,4.9,38,0.00,,---,0.00,VWS V14.01,2013-05-25 14:40:00,
2013-05-25 10:45:00,42.6,18.8,33.00,North,357,3.6,7.2,38,0.00,,---,0.00,VWS V14.01,2013-05-25 14:45:00,
2013-05-25 10:50:00,44.2,20.3,33.00,WSW,255,5.8,5.8,38,0.00,,---,0.00,VWS V14.01,2013-05-25 14:50:00,
2013-05-25 10:55:00,43.0,19.1,33.00,West,272,5.4,5.4,38,0.00,,---,0.00,VWS V14.01,2013-05-25 14:55:00,
2013-05-25 11:00:00,43.0,19.1,33.00,NW,317,0.0,0.0,38,0.00,,---,0.00,VWS V14.01,2013-05-25 15:00:00,
2013-05-25 11:05:00,43.2,19.3,33.00,NE,52,0.0,2.7,38,0.00,,---,0.00,VWS V14.01,2013-05-25 15:05:00,
2013-05-25 11:10:00,44.1,20.1,33.00,NE,45,0.0,0.0,38,0.00,,---,0.00,VWS V14.01,2013-05-25 15:10:00,
2013-05-25 11:15:00,44.4,20.4,33.00,SW,223,0.0,0.0,38,0.00,,---,0.00,VWS V14.01,2013-05-25 15:15:00,
2013-05-25 11:20:00,44.2,20.3,33.00,WNW,294,5.4,5.4,38,0.00,,---,0.00,VWS V14.01,2013-05-25 15:20:00,
2013-05-25 11:25:00,44.6,20.6,33.00,West,272,0.0,0.0,38,0.00,,---,0.00,VWS V14.01,2013-05-25 15:25:00,
2013-05-25 11:30:00,46.4,21.6,33.00,North,0,3.6,4.0,37,0.00,,---,0.00,VWS V14.01,2013-05-25 15:30:00,
2013-05-25 11:35:00,45.7,21.5,33.00,West,280,0.0,6.3,38,0.00,,---,0.00,VWS V14.01,2013-05-25 15:35:00,
2013-05-25 11:40:00,46.4,21.6,33.00,NNE,20,3.6,3.6,37,0.00,,---,0.00,VWS V14.01,2013-05-25 15:40:00,
2013-05-25 11:45:00,46.9,22.0,33.00,WNW,301,2.2,2.7,37,0.00,,---,0.00,VWS V14.01,2013-05-25 15:45:00,
2013-05-25 11:50:00,46.8,21.9,33.00,SE,133,0.0,2.7,37,0.00,,---,0.00,VWS V14.01,2013-05-25 15:50:00,
2013-05-25 11:55:00,46.9,22.0,33.00,North,2,4.0,4.0,37,0.00,,---,0.00,VWS V14.01,2013-05-25 15:55:00,
2013-05-25 12:00:00,48.4,23.3,33.00,West,259,3.6,3.6,37,0.00,,---,0.00,VWS V14.01,2013-05-25 16:00:00,
2013-05-25 12:05:00,48.2,23.2,33.00,West,263,0.0,2.7,37,0.00,,---,0.00,VWS V14.01,2013-05-25 16:05:00,
2013-05-25 12:10:00,48.2,23.2,33.00,NNW,337,6.3,6.3,37,0.00,,---,0.00,VWS V14.01,2013-05-25 16:10:00,
2013-05-25 12:15:00,48.9,23.8,33.00,NNE,20,6.3,6.3,37,0.00,,---,0.00,VWS V14.01,2013-05-25 16:15:00,
2013-05-25 12:20:00,48.9,23.8,33.00,North,353,3.6,6.3,37,0.00,,---,0.00,VWS V14.01,2013-05-25 16:20:00,
2013-05-25 12:25:00,49.3,24.1,33.00,SSW,200,4.9,4.9,37,0.00,,---,0.00,VWS V14.01,2013-05-25 16:25:00,
2013-05-25 12:30:00,50.2,24.3,33.00,West,275,3.1,3.1,36,0.00,,---,0.00,VWS V14.01,2013-05-25 16:30:00,
2013-05-25 12:35:00,50.4,24.4,33.00,SW,226,2.7,3.6,36,0.00,,---,0.00,VWS V14.01,2013-05-25 16:35:00,
2013-05-25 12:40:00,51.4,25.4,33.00,SW,214,3.6,6.3,36,0.00,,---,0.00,VWS V14.01,2013-05-25 16:40:00,
2013-05-25 12:45:00,50.9,24.9,33.00,NE,39,3.1,3.6,36,0.00,,---,0.00,VWS V14.01,2013-05-25 16:45:00,
2013-05-25 12:50:00,50.9,24.9,33.00,NW,317,5.4,5.4,36,0.00,,---,0.00,VWS V14.01,2013-05-25 16:50:00,
2013-05-25 12:55:00,51.6,25.6,33.00,SW,225,4.0,5.8,36,0.00,,---,0.00,VWS V14.01,2013-05-25 16:55:00,
2013-05-25 13:00:00,50.5,24.6,33.00,West,277,3.1,4.0,36,0.00,,---,0.00,VWS V14.01,2013-05-25 17:00:00,
2013-05-25 13:05:00,51.8,25.7,33.00,East,101,4.0,5.8,36,0.00,,---,0.00,VWS V14.01,2013-05-25 17:05:00,
2013-05-25 13:10:00,51.4,25.4,33.00,WSW,250,0.0,6.3,36,0.00,,---,0.00,VWS V14.01,2013-05-25 17:10:00,
2013-05-25 13:15:00,50.2,24.3,33.00,NW,318,0.0,0.0,36,0.00,,---,0.00,VWS V14.01,2013-05-25 17:15:00,
2013-05-25 13:20:00,51.1,25.1,33.00,North,7,4.0,6.3,36,0.00,,---,0.00,VWS V14.01,2013-05-25 17:20:00,
2013-05-25 13:25:00,51.4,25.4,33.00,West,279,2.2,4.0,36,0.00,,---,0.00,VWS V14.01,2013-05-25 17:25:00,
2013-05-25 13:30:00,51.8,25.7,33.00,WNW,286,0.0,0.0,36,0.00,,---,0.00,VWS V14.01,2013-05-25 17:30:00,
2013-05-25 13:35:00,52.2,26.0,33.00,North,349,3.1,4.0,36,0.00,,---,0.00,VWS V14.01,2013-05-25 17:35:00,
2013-05-25 13:40:00,52.7,26.5,33.00,SSW,200,2.2,2.7,36,0.00,,---,0.00,VWS V14.01,2013-05-25 17:40:00,
2013-05-25 13:45:00,53.2,27.0,33.00,NE,48,0.0,3.6,36,0.00,,---,0.00,VWS V14.01,2013-05-25 17:45:00,
2013-05-25 13:50:00,52.7,26.5,33.00,NNW,334,4.0,4.0,36,0.00,,---,0.00,VWS V14.01,2013-05-25 17:50:00,
2013-05-25 13:55:00,54.0,27.6,33.00,East,79,3.6,8.3,36,0.00,,---,0.00,VWS V14.01,2013-05-25 17:55:00,
2013-05-25 14:00:00,53.4,27.1,33.00,NW,317,0.0,3.1,36,0.00,,---,0.00,VWS V14.01,2013-05-25 18:00:00,
2013-05-25 14:05:00,52.7,26.5,33.00,NNE,19,3.6,3.6,36,0.00,,---,0.00,VWS V14.01,2013-05-25 18:05:00,
2013-05-25 14:10:00,53.2,27.0,33.00,WSW,249,4.0,4.0,36,0.00,,---,0.00,VWS V14.01,2013-05-25 18:10:00,
2013-05-25 14:15:00,52.2,26.0,33.00,North,0,0.0,0.0,36,0.00,,---,0.00,VWS V14.01,2013-05-25 18:15:00,
2013-05-25 14:20:00,53.4,27.1,33.00,SW,233,2.7,4.9,36,0.00,,---,0.00,VWS V14.01,2013-05-25 18:20:00,
2013-05-25 14:25:00,53.6,27.3,33.00,NE,51,3.6,3.6,36,0.00,,---,0.00,VWS V14.01,2013-05-25 18:25:00,
2013-05-25 14:30:00,55.4,28.2,33.00,ENE,64,0.0,2.7,35,0.00,,---,0.00,VWS V14.01,2013-05-25 18:30:00,
2013-05-25 14:35:00,57.7,30.3,33.00,WSW,252,5.8,5.8,35,0.00,,---,0.00,VWS V14.01,2013-05-25 18:35:00,
2013-05-25 14:40:00,55.9,28.7,33.00,North,349,4.0,5.8,35,0.00,,---,0.00,VWS V14.01,2013-05-25 18:40:00,
2013-05-25 14:45:00,56.1,28.9,33.00,North,349,3.6,4.0,35,0.00,,---,0.00,VWS V14.01,2013-05-25 18:45:00,
2013-05-25 14:50:00,55.9,28.7,33.00,SW,225,2.2,2.7,35,0.00,,---,0.00,VWS V14.01,2013-05-25 18:50:00,
2013-05-25 14:55:00,56.1,28.9,33.00,North,0,5.4,8.3,35,0.00,,---,0.00,VWS V14.01,2013-05-25 18:55:00,
2013-05-25 15:00:00,57.0,29.7,33.00,NNW,327,3.6,4.0,35,0.00,,---,0.00,VWS V14.01,2013-05-25 19:00:00,
2013-05-25 15:05:00,57.7,30.3,33.00,NW,306,4.9,4.9,35,0.00,,---,0.00,VWS V14.01,2013-05-25 19:05:00,
2013-05-25 15:10:00,57.0,29.7,33.00,WNW,295,4.9,4.9,35,0.00,,---,0.00,VWS V14.01,2013-05-25 19:10:00,
2013-05-25 15:15:00,58.3,30.8,33.00,North,0,2.2,2.7,35,0.00,,---,0.00,VWS V14.01,2013-05-25 19:15:00,
2013-05-25 15:20:00,57.9,30.5,33.00,SW,235,4.0,4.9,35,0.00,,---,0.00,VWS V14.01,2013-05-25 19:20:00,
2013-05-25 15:25:00,59.5,31.2,33.00,NW,307,0.0,3.6,34,0.00,,---,0.00,VWS V14.01,2013-05-25 19:25:00,
2013-05-25 15:30:00,59.0,30.7,33.00,NNE,14,6.7,6.7,34,0.00,,---,0.00,VWS V14.01,2013-05-25 19:30:00,
2013-05-25 15:35:00,57.9,30.5,33.00,West,281,3.1,3.6,35,0.00,,---,0.00,VWS V14.01,2013-05-25 19:35:00,
2013-05-25 15:40:00,57.4,30.0,33.00,ESE,112,0.0,0.0,35,0.00,,---,0.00,VWS V14.01,2013-05-25 19:40:00,
2013-05-25 15:45:00,57.0,29.7,33.00,NW,316,0.0,3.6,35,0.00,,---,0.00,VWS V14.01,2013-05-25 19:45:00,
2013-05-25 15:50:00,57.7,30.3,33.00,WSW,255,5.4,5.4,35,0.00,,---,0.00,VWS V14.01,2013-05-25 19:50:00,
2013-05-25 15:55:00,59.5,31.2,33.00,SSW,198,2.7,5.4,34,0.00,,---,0.00,VWS V14.01,2013-05-25 19:55:00,
2013-05-25 16:00:00,63.0,34.2,33.00,NNW,328,4.0,4.0,34,0.00,,---,0.00,VWS V14.01,2013-05-25 20:00:00,
2013-05-25 16:05:00,63.0,34.2,33.00,NNE,30,2.7,3.1,34,0.00,,---,0.00,VWS V14.01,2013-05-25 20:05:00,
2013-05-25 16:10:00,61.9,33.2,33.00,NNE,20,5.4,5.4,34,0.00,,---,0.00,VWS V14.01,2013-05-25 20:10:00,
2013-05-25 16:15:00,58.6,31.1,33.00,WSW,243,4.9,6.3,35,0.00,,---,0.00,VWS V14.01,2013-05-25 20:15:00,
2013-05-25 16:20:00,59.2,30.9,33.00,SSW,192,5.4,5.4,34,0.00,,---,0.00,VWS V14.01,2013-05-25 20:20:00,
2013-05-25 16:25:00,60.1,31.6,33.00,ENE,64,2.7,3.1,34,0.00,,---,0.00,VWS V14.01,2013-05-25 20:25:00,
2013-05-25 16:30:00,60.6,32.1,33.00,West,275,2.7,2.7,34,0.00,,---,0.00,VWS V14.01,2013-05-25 20:30:00,
2013-05-25 16:35:00,61.5,32.9,33.00,WNW,287,0.0,2.2,34,0.00,,---,0.00,VWS V14.01,2013-05-25 20:35:00,
2013-05-25 16:40:00,59.5,31.2,33.00,ENE,76,5.8,5.8,34,0.00,,---,0.00,VWS V14.01,2013-05-25 20:40:00,
2013-05-25 16:45:00,58.6,31.1,33.00,West,275,4.0,4.0,35,0.00,,---,0.00,VWS V14.01,2013-05-25 20:45:00,
2013-05-25 16:50:00,59.7,31.3,33.00,NW,317,4.0,4.0,34,0.00,,---,0.00,VWS V14.01,2013-05-25 20:50:00,
2013-05-25 16:55:00,59.9,31.5,33.00,SW,234,2.2,3.6,34,0.00,,---,0.00,VWS V14.01,2013-05-25 20:55:00,
2013-05-25 17:00:00,59.9,31.5,33.00,NNE,23,6.3,6.3,34,0.00,,---,0.00,VWS V14.01,2013-05-25 21:00:00,
2013-05-25 17:05:00,61.3,32.8,33.00,North,0,2.2,2.7,34,0.00,,---,0.00,VWS V14.01,2013-05-25 21:05:00,
2013-05-25 17:10:00,62.1,33.4,33.00,SSE,155,4.5,5.8,34,0.00,,---,0.00,VWS V14.01,2013-05-25 21:10:00,
2013-05-25 17:15:00,61.0,32.4,33.00,WSW,247,4.0,4.0,34,0.00,,---,0.00,VWS V14.01,2013-05-25 21:15:00,
2013-05-25 17:20:00,60.8,32.3,33.00,West,272,4.0,4.0,34,0.00,,---,0.00,VWS V14.01,2013-05-25 21:20:00,
2013-05-25 17:25:00,60.3,31.8,33.00,NNW,345,4.9,4.9,34,0.00,,---,0.00,VWS V14.01,2013-05-25 21:25:00,
2013-05-25 17:30:00,60.4,32.0,33.00,West,275,4.9,4.9,34,0.00,,---,0.00,VWS V14.01,2013-05-25 21:30:00,
2013-05-25 17:35:00,61.0,32.4,33.00,West,259,4.0,4.9,34,0.00,,---,0.00,VWS V14.01,2013-05-25 21:35:00,
2013-05-25 17:40:00,60.4,32.0,33.00,North,6,3.1,3.6,34,0.00,,---,0.00,VWS V14.01,2013-05-25 21:40:00,
2013-05-25 17:45:00,60.1,31.6,33.00,WNW,303,0.0,0.0,34,0.00,,---,0.00,VWS V14.01,2013-05-25 21:45:00,
2013-05-25 17:50:00,58.5,30.9,33.00,West,266,4.0,9.6,35,0.00,,---,0.00,VWS V14.01,2013-05-25 21:50:00,
2013-05-25 17:55:00,58.6,31.1,33.00,North,357,3.1,3.1,35,0.00,,---,0.00,VWS V14.01,2013-05-25 21:55:00,
2013-05-25 18:00:00,57.0,29.7,33.00,WNW,289,3.6,3.6,35,0.00,,---,0.00,VWS V14.01,2013-05-25 22:00:00,
2013-05-25 18:05:00,56.8,29.5,33.00,SW,232,0.0,5.4,35,0.00,,---,0.00,VWS V14.01,2013-05-25 22:05:00,
2013-05-25 18:10:00,56.7,29.3,33.00,SW,231,0.0,2.2,35,0.00,,---,0.00,VWS V14.01,2013-05-25 22:10:00,
2013-05-25 18:15:00,55.9,28.7,33.00,NE,49,0.0,0.0,35,0.00,,---,0.00,VWS V14.01,2013-05-25 22:15:00,
2013-05-25 18:20:00,55.6,28.4,33.00,SW,221,0.0,0.0,35,0.00,,---,0.00,VWS V14.01,2013-05-25 22:20:00,
2013-05-25 18:25:00,55.2,28.8,33.00,SW,226,0.0,2.2,36,0.00,,---,0.00,VWS V14.01,2013-05-25 22:25:00,
2013-05-25 18:30:00,55.8,28.5,33.00,West,267,3.6,3.6,35,0.00,,---,0.00,VWS V14.01,2013-05-25 22:30:00,
2013-05-25 18:35:00,55.8,28.5,33.00,East,82,0.0,0.0,35,0.00,,---,0.00,VWS V14.01,2013-05-25 22:35:00,
2013-05-25 18:40:00,55.2,28.8,33.00,NW,304,0.0,3.6,36,0.00,,---,0.00,VWS V14.01,2013-05-25 22:40:00,
2013-05-25 18:45:00,54.9,28.4,33.00,NNW,340,4.0,4.0,36,0.00,,---,0.00,VWS V14.01,2013-05-25 22:45:00,
2013-05-25 18:50:00,55.0,28.6,33.00,West,265,0.0,3.1,36,0.00,,---,0.00,VWS V14.01,2013-05-25 22:50:00,
2013-05-25 18:55:00,55.2,28.8,33.00,SSW,192,3.6,3.6,36,0.00,,---,0.00,VWS V14.01,2013-05-25 22:55:00,
2013-05-25 19:00:00,55.2,28.8,33.00,West,271,9.6,9.6,36,0.00,,---,0.00,VWS V14.01,2013-05-25 23:00:00,
2013-05-25 19:05:00,54.9,28.4,33.00,NNE,19,2.2,3.1,36,0.00,,---,0.00,VWS V14.01,2013-05-25 23:05:00,
2013-05-25 19:10:00,54.5,28.1,33.00,WNW,302,0.0,3.6,36,0.00,,---,0.00,VWS V14.01,2013-05-25 23:10:00,
2013-05-25 19:15:00,54.1,27.8,33.00,NW,315,0.0,0.0,36,0.00,,---,0.00,VWS V14.01,2013-05-25 23:15:00,
2013-05-25 19:20:00,53.6,27.3,33.00,West,271,0.0,0.0,36,0.00,,---,0.00,VWS V14.01,2013-05-25 23:20:00,
2013-05-25 19:25:00,53.2,27.0,33.00,WNW,292,3.6,3.6,36,0.00,,---,0.00,VWS V14.01,2013-05-25 23:25:00,
2013-05-25 19:30:00,53.1,26.8,33.00,SSW,192,0.0,0.0,36,0.00,,---,0.00,VWS V14.01,2013-05-25 23:30:00,
2013-05-25 19:35:00,52.9,26.7,33.00,NW,313,0.0,0.0,36,0.00,,---,0.00,VWS V14.01,2013-05-25 23:35:00,
2013-05-25 19:40:00,52.7,26.5,33.00,SSE,151,0.0,0.0,36,0.00,,---,0.00,VWS V14.01,2013-05-25 23:40:00,
2013-05-25 19:45:00,52.3,26.2,33.00,WSW,249,3.1,3.1,36,0.00,,---,0.00,VWS V14.01,2013-05-25 23:45:00,
2013-05-25 19:50:00,52.0,25.9,33.00,WNW,298,3.1,6.3,36,0.00,,---,0.00,VWS V14.01,2013-05-25 23:50:00,
2013-05-25 19:55:00,51.8,25.7,33.00,North,6,2.7,2.7,36,0.00,,---,0.00,VWS V14.01,2013-05-25 23:55:00,
2013-05-25 20:00:00,51.6,25.6,33.00,SW,225,0.0,0.0,36,0.00,,---,0.00,VWS V14.01,2013-05-26 00:00:00,
2013-05-25 20:05:00,51.3,25.2,33.00,WSW,254,0.0,0.0,36,0.00,,---,0.00,VWS V14.01,2013-05-26 00:05:00,
2013-05-25 20:10:00,50.9,24.9,33.00,West,260,0.0,0.0,36,0.00,,---,0.00,VWS V14.01,2013-05-26 00:10:00,
2013-05-25 20:15:00,50.5,24.6,33.00,ENE,57,0.0,0.0,36,0.00,,---,0.00,VWS V14.01,2013-05-26 00:15:00,
2013-05-25 20:20:00,50.2,24.3,33.00,NNW,341,0.0,0.0,36,0.00,,---,0.00,VWS V14.01,2013-05-26 00:20:00,
2013-05-25 20:25:00,50.0,24.1,33.00,NE,51,0.0,0.0,36,0.00,,---,0.00,VWS V14.01,2013-05-26 00:25:00,
2013-05-25 20:30:00,49.5,24.3,33.00,WNW,285,0.0,0.0,37,0.00,,---,0.00,VWS V14.01,2013-05-26 00:30:00,
2013-05-25 20:35:00,49.3,24.1,33.00,West,259,0.0,0.0,37,0.00,,---,0.00,VWS V14.01,2013-05-26 00:35:00,
2013-05-25 20:40:00,49.1,24.0,33.00,NNW,342,0.0,0.0,37,0.00,,---,0.00,VWS V14.01,2013-05-26 00:40:00,
2013-05-25 20:45:00,48.7,23.6,33.00,West,267,0.0,0.0,37,0.00,,---,0.00,VWS V14.01,2013-05-26 00:45:00,
2013-05-25 20:50:00,48.6,23.5,33.00,West,277,0.0,0.0,37,0.00,,---,0.00,VWS V14.01,2013-05-26 00:50:00,
2013-05-25 20:55:00,48.2,23.2,33.00,West,277,0.0,0.0,37,0.00,,---,0.00,VWS V14.01,2013-05-26 00:55:00,
2013-05-25 21:00:00,47.8,22.9,33.00,NW,310,0.0,0.0,37,0.00,,---,0.00,VWS V14.01,2013-05-26 01:00:00,
2013-05-25 21:05:00,47.5,22.5,33.00,WSW,248,0.0,0.0,37,0.00,,---,0.00,VWS V14.01,2013-05-26 01:05:00,
2013-05-25 21:10:00,47.1,22.2,33.00,WSW,247,0.0,0.0,37,0.00,,---,0.00,VWS V14.01,2013-05-26 01:10:00,
2013-05-25 21:15:00,46.8,21.9,33.00,SSW,196,0.0,0.0,37,0.00,,---,0.00,VWS V14.01,2013-05-26 01:15:00,
2013-05-25 21:20:00,46.6,21.7,33.00,WNW,288,0.0,0.0,37,0.00,,---,0.00,VWS V14.01,2013-05-26 01:20:00,
2013-05-25 21:25:00,46.4,21.6,33.00,West,280,0.0,0.0,37,0.00,,---,0.00,VWS V14.01,2013-05-26 01:25:00,
2013-05-25 21:30:00,46.2,22.0,33.00,West,262,0.0,0.0,38,0.00,,---,0.00,VWS V14.01,2013-05-26 01:30:00,
2013-05-25 21:35:00,46.0,21.9,33.00,WSW,256,0.0,0.0,38,0.00,,---,0.00,VWS V14.01,2013-05-26 01:35:00,
2013-05-25 21:40:00,46.0,21.9,33.00,WNW,298,0.0,0.0,38,0.00,,---,0.00,VWS V14.01,2013-05-26 01:40:00,
2013-05-25 21:45:00,45.7,21.5,33.00,WNW,298,0.0,0.0,38,0.00,,---,0.00,VWS V14.01,2013-05-26 01:45:00,
2013-05-25 21:50:00,45.5,21.4,33.00,NW,325,0.0,0.0,38,0.00,,---,0.00,VWS V14.01,2013-05-26 01:50:00,
2013-05-25 21:55:00,45.3,21.2,33.00,North,357,0.0,0.0,38,0.00,,---,0.00,VWS V14.01,2013-05-26 01:55:00,
2013-05-25 22:00:00,45.1,21.1,33.00,NNW,333,0.0,0.0,38,0.00,,---,0.00,VWS V14.01,2013-05-26 02:00:00,
2013-05-25 22:05:00,44.8,20.7,33.00,NNW,333,0.0,0.0,38,0.00,,---,0.00,VWS V14.01,2013-05-26 02:05:00,
2013-05-25 22:10:00,44.6,20.6,33.00,NNW,338,0.0,0.0,38,0.00,,---,0.00,VWS V14.01,2013-05-26 02:10:00,
2013-05-25 22:15:00,44.4,20.4,33.00,West,264,0.0,0.0,38,0.00,,---,0.00,VWS V14.01,2013-05-26 02:15:00,
2013-05-25 22:20:00,44.2,20.3,33.00,West,264,0.0,0.0,38,0.00,,---,0.00,VWS V14.01,2013-05-26 02:20:00,
2013-05-25 22:25:00,43.9,19.9,33.00,West,264,0.0,0.0,38,0.00,,---,0.00,VWS V14.01,2013-05-26 02:25:00,
2013-05-25 22:30:00,43.7,19.8,33.00,West,264,0.0,0.0,38,0.00,,---,0.00,VWS V14.01,2013-05-26 02:30:00,
2013-05-25 22:35:00,43.3,19.5,33.00,West,264,0.0,0.0,38,0.00,,---,0.00,VWS V14.01,2013-05-26 02:35:00,
2013-05-25 22:40:00,43.2,19.3,33.00,West,264,0.0,0.0,38,0.00,,---,0.00,VWS V14.01,2013-05-26 02:40:00,
2013-05-25 22:45:00,42.8,19.0,33.00,West,264,0.0,0.0,38,0.00,,---,0.00,VWS V14.01,2013-05-26 02:45:00,
2013-05-25 22:50:00,42.6,18.8,33.00,West,264,0.0,0.0,38,0.00,,---,0.00,VWS V14.01,2013-05-26 02:50:00,
2013-05-25 22:55:00,42.3,18.5,33.00,West,264,0.0,0.0,38,0.00,,---,0.00,VWS V14.01,2013-05-26 02:55:00,
2013-05-25 23:00:00,42.1,18.3,33.00,West,264,0.0,0.0,38,0.00,,---,0.00,VWS V14.01,2013-05-26 03:00:00,
2013-05-25 23:05:00,41.9,18.2,33.00,West,264,0.0,0.0,38,0.00,,---,0.00,VWS V14.01,2013-05-26 03:05:00,
2013-05-25 23:10:00,41.5,17.8,33.00,West,264,0.0,0.0,38,0.00,,---,0.00,VWS V14.01,2013-05-26 03:10:00,
2013-05-25 23:15:00,41.2,17.5,33.00,West,264,0.0,0.0,38,0.00,,---,0.00,VWS V14.01,2013-05-26 03:15:00,
2013-05-25 23:20:00,40.8,17.8,33.00,West,264,0.0,0.0,39,0.00,,---,0.00,VWS V14.01,2013-05-26 03:20:00,
2013-05-25 23:25:00,40.5,17.5,33.00,West,264,0.0,0.0,39,0.00,,---,0.00,VWS V14.01,2013-05-26 03:25:00,
2013-05-25 23:30:00,40.6,17.6,33.00,West,264,0.0,0.0,39,0.00,,---,0.00,VWS V14.01,2013-05-26 03:30:00,
2013-05-25 23:35:00,40.5,17.5,33.00,West,264,0.0,0.0,39,0.00,,---,0.00,VWS V14.01,2013-05-26 03:35:00,
2013-05-25 23:40:00,40.3,17.3,33.00,West,264,0.0,0.0,39,0.00,,---,0.00,VWS V14.01,2013-05-26 03:40:00,
2013-05-25 23:45:00,40.1,17.1,33.00,West,264,0.0,0.0,39,0.00,,---,0.00,VWS V14.01,2013-05-26 03:45:00,
2013-05-25 23:50:00,40.1,17.1,33.00,West,264,0.0,0.0,39,0.00,,---,0.00,VWS V14.01,2013-05-26 03:50:00,
2013-05-25 23:55:00,40.1,17.1,33.00,West,264,0.0,0.0,39,0.00,,---,0.00,VWS V14.01,2013-05-26 03:55:00,